Stündliche Wetter Cayos Cochinos

Heute, 27 Januar, Mittwoch

Zeit Temperatur Niederschläge Wind Luftdruck Luftfeuchtigkeit
00:00 +22°C° 0 mm 6 m/S 758 mmHg 87%
01:00 +22°C° 0 mm 5 m/S 758 mmHg 90%
02:00 +21°C° 0 mm 5 m/S 758 mmHg 92%
03:00 +21°C° 0 mm 5 m/S 758 mmHg 94%
04:00 +21°C° 0 mm 5 m/S 758 mmHg 94%
05:00 +21°C° 0 mm 4 m/S 759 mmHg 95%
06:00 +21°C° 0 mm 4 m/S 759 mmHg 95%
07:00 +23°C° 0 mm 4 m/S 759 mmHg 84%
08:00 +26°C° 0 mm 4 m/S 760 mmHg 73%
09:00 +29°C° 0 mm 4 m/S 760 mmHg 61%
10:00 +32°C° 0 mm 4 m/S 760 mmHg 54%
11:00 +33°C° 0 mm 5 m/S 760 mmHg 47%
12:00 +35°C° 0 mm 6 m/S 759 mmHg 40%
13:00 +35°C° 0 mm 6 m/S 759 mmHg 44%
14:00 +35°C° 0 mm 7 m/S 758 mmHg 47%
15:00 +34°C° 0 mm 7 m/S 758 mmHg 51%
16:00 +32°C° 0 mm 7 m/S 758 mmHg 63%
17:00 +29°C° 0 mm 8 m/S 759 mmHg 75%
18:00 +26°C° 0 mm 8 m/S 759 mmHg 87%
19:00 +26°C° 0 mm 7 m/S 760 mmHg 90%
20:00 +24°C° 0 mm 7 m/S 760 mmHg 94%
21:00 +23°C° 0 mm 7 m/S 761 mmHg 97%
22:00 +23°C° 0 mm 6 m/S 761 mmHg 97%
23:00 +23°C° 0 mm 5 m/S 761 mmHg 97%

Morgen, 28 Januar, Donnerstag

Zeit Temperatur Niederschläge Wind Luftdruck Luftfeuchtigkeit
00:00 +22°C° 0 mm 5 m/S 761 mmHg 97%
01:00 +22°C° 0 mm 4 m/S 761 mmHg 97%
02:00 +22°C° 0 mm 4 m/S 761 mmHg 98%
03:00 +21°C° 0 mm 4 m/S 761 mmHg 98%
04:00 +21°C° 0 mm 3 m/S 761 mmHg 98%
05:00 +21°C° 0 mm 3 m/S 761 mmHg 98%
06:00 +21°C° 0 mm 2 m/S 762 mmHg 98%
07:00 +24°C° 0 mm 2 m/S 762 mmHg 87%
08:00 +27°C° 0 mm 1 m/S 763 mmHg 76%
09:00 +29°C° 0 mm 1 m/S 763 mmHg 65%
10:00 +29°C° 0.2 mm 2 m/S 763 mmHg 70%
11:00 +29°C° 0.2 mm 2 m/S 762 mmHg 75%
12:00 +29°C° 0.2 mm 3 m/S 762 mmHg 80%
13:00 +28°C° 0.4 mm 4 m/S 762 mmHg 81%
14:00 +28°C° 0.4 mm 5 m/S 762 mmHg 82%
15:00 +28°C° 0.4 mm 6 m/S 761 mmHg 83%
16:00 +27°C° 0.3 mm 5 m/S 762 mmHg 88%
17:00 +25°C° 0.3 mm 5 m/S 762 mmHg 93%
18:00 +23°C° 0.3 mm 5 m/S 762 mmHg 97%
19:00 +23°C° 0.2 mm 5 m/S 762 mmHg 97%
20:00 +22°C° 0.2 mm 5 m/S 763 mmHg 97%
21:00 +22°C° 0.2 mm 5 m/S 763 mmHg 98%
22:00 +22°C° 0.2 mm 5 m/S 763 mmHg 97%
23:00 +22°C° 0.2 mm 5 m/S 762 mmHg 97%

übermorgen, 29 Januar, Freitag

Zeit Temperatur Niederschläge Wind Luftdruck Luftfeuchtigkeit
00:00 +22°C° 0.2 mm 5 m/S 762 mmHg 97%
01:00 +22°C° 0.4 mm 5 m/S 762 mmHg 97%
02:00 +22°C° 0.4 mm 6 m/S 761 mmHg 98%
03:00 +22°C° 0.4 mm 6 m/S 761 mmHg 98%
04:00 +22°C° 0.2 mm 5 m/S 761 mmHg 97%
05:00 +22°C° 0.2 mm 5 m/S 761 mmHg 97%
06:00 +22°C° 0.2 mm 4 m/S 762 mmHg 97%
07:00 +23°C° 0 mm 4 m/S 762 mmHg 91%
08:00 +26°C° 0 mm 4 m/S 762 mmHg 85%
09:00 +27°C° 0 mm 3 m/S 763 mmHg 79%
10:00 +28°C° 0.1 mm 3 m/S 762 mmHg 71%
11:00 +30°C° 0.1 mm 3 m/S 762 mmHg 63%
12:00 +31°C° 0.1 mm 3 m/S 761 mmHg 54%
13:00 +30°C° 0.2 mm 3 m/S 761 mmHg 63%
14:00 +29°C° 0.2 mm 3 m/S 760 mmHg 72%
15:00 +28°C° 0.2 mm 3 m/S 760 mmHg 80%
16:00 +26°C° 0.8 mm 3 m/S 760 mmHg 85%
17:00 +25°C° 0.8 mm 3 m/S 760 mmHg 90%
18:00 +23°C° 0.8 mm 4 m/S 760 mmHg 95%
19:00 +22°C° 0.7 mm 4 m/S 761 mmHg 96%
20:00 +22°C° 0.7 mm 4 m/S 761 mmHg 97%
21:00 +22°C° 0.7 mm 4 m/S 761 mmHg 97%
22:00 +22°C° 1.1 mm 4 m/S 761 mmHg 97%
23:00 +22°C° 1.1 mm 4 m/S 761 mmHg 97%

30 Januar, Samstag

Zeit Temperatur Niederschläge Wind Luftdruck Luftfeuchtigkeit
00:00 +22°C° 1.1 mm 5 m/S 760 mmHg 96%
01:00 +22°C° 1.1 mm 5 m/S 760 mmHg 97%
02:00 +22°C° 1.1 mm 5 m/S 760 mmHg 97%
03:00 +22°C° 1.1 mm 6 m/S 759 mmHg 97%
04:00 +22°C° 0.5 mm 6 m/S 759 mmHg 97%
05:00 +21°C° 0.5 mm 6 m/S 759 mmHg 98%
06:00 +21°C° 0.5 mm 6 m/S 760 mmHg 98%
07:00 +23°C° 0.1 mm 5 m/S 760 mmHg 92%
08:00 +25°C° 0.1 mm 5 m/S 761 mmHg 86%
09:00 +27°C° 0.1 mm 4 m/S 761 mmHg 80%
10:00 +28°C° 0 mm 4 m/S 761 mmHg 71%
11:00 +30°C° 0 mm 5 m/S 760 mmHg 62%
12:00 +32°C° 0 mm 5 m/S 760 mmHg 53%
13:00 +30°C° 0.1 mm 5 m/S 759 mmHg 61%
14:00 +29°C° 0.1 mm 6 m/S 758 mmHg 69%
15:00 +28°C° 0.1 mm 6 m/S 758 mmHg 78%
16:00 +27°C° 0.1 mm 6 m/S 758 mmHg 84%
17:00 +26°C° 0.1 mm 6 m/S 758 mmHg 90%
18:00 +25°C° 0.1 mm 5 m/S 758 mmHg 97%
19:00 +23°C° 0.1 mm 5 m/S 759 mmHg 97%
20:00 +23°C° 0.1 mm 5 m/S 759 mmHg 98%
21:00 +22°C° 0.1 mm 5 m/S 760 mmHg 98%
22:00 +22°C° 0 mm 5 m/S 759 mmHg 98%
23:00 +22°C° 0 mm 4 m/S 759 mmHg 98%

31 Januar, Sonntag

Zeit Temperatur Niederschläge Wind Luftdruck Luftfeuchtigkeit
00:00 +22°C° 0 mm 4 m/S 759 mmHg 98%
01:00 +22°C° 0 mm 3 m/S 759 mmHg 98%
02:00 +21°C° 0 mm 3 m/S 759 mmHg 98%
03:00 +21°C° 0 mm 3 m/S 758 mmHg 97%
04:00 +23°C° 0 mm 2 m/S 759 mmHg 97%
05:00 +23°C° 0 mm 2 m/S 759 mmHg 96%
06:00 +23°C° 0 mm 2 m/S 759 mmHg 96%
07:00 +25°C° 0 mm 2 m/S 760 mmHg 88%
08:00 +27°C° 0 mm 1 m/S 760 mmHg 80%
09:00 +29°C° 0 mm 1 m/S 760 mmHg 72%
10:00 +30°C° 0 mm 1 m/S 760 mmHg 66%
11:00 +31°C° 0 mm 2 m/S 759 mmHg 60%
12:00 +34°C° 0 mm 2 m/S 759 mmHg 54%
13:00 +32°C° 0.1 mm 2 m/S 758 mmHg 62%
14:00 +30°C° 0.1 mm 2 m/S 758 mmHg 70%
15:00 +29°C° 0.1 mm 2 m/S 757 mmHg 79%
16:00 +28°C° 0.1 mm 2 m/S 758 mmHg 84%
17:00 +26°C° 0.1 mm 3 m/S 758 mmHg 89%
18:00 +25°C° 0.1 mm 3 m/S 758 mmHg 94%
19:00 +25°C° 0.5 mm 4 m/S 759 mmHg 95%
20:00 +23°C° 0.5 mm 5 m/S 759 mmHg 96%
21:00 +23°C° 0.5 mm 6 m/S 760 mmHg 97%
22:00 +23°C° 0.1 mm 5 m/S 760 mmHg 97%
23:00 +22°C° 0.1 mm 4 m/S 760 mmHg 97%

1 Februar, Montag

Zeit Temperatur Niederschläge Wind Luftdruck Luftfeuchtigkeit
00:00 +22°C° 0.1 mm 4 m/S 760 mmHg 97%
01:00 +22°C° 0 mm 3 m/S 760 mmHg 97%
02:00 +22°C° 0 mm 3 m/S 759 mmHg 97%
03:00 +23°C° 0 mm 2 m/S 759 mmHg 97%
04:00 +21°C° 0 mm 2 m/S 759 mmHg 97%
05:00 +21°C° 0 mm 2 m/S 760 mmHg 97%
06:00 +21°C° 0 mm 2 m/S 760 mmHg 98%
07:00 +24°C° 0.1 mm 2 m/S 760 mmHg 90%
08:00 +27°C° 0.1 mm 1 m/S 761 mmHg 82%
09:00 +29°C° 0.1 mm 1 m/S 761 mmHg 74%
10:00 +29°C° 0.2 mm 1 m/S 761 mmHg 71%
11:00 +30°C° 0.2 mm 1 m/S 761 mmHg 67%
12:00 +31°C° 0.2 mm 2 m/S 760 mmHg 63%
13:00 +30°C° 0.3 mm 2 m/S 760 mmHg 72%
14:00 +29°C° 0.3 mm 3 m/S 759 mmHg 80%
15:00 +27°C° 0.3 mm 3 m/S 759 mmHg 89%
16:00 +26°C° 0.3 mm 3 m/S 759 mmHg 92%
17:00 +25°C° 0.3 mm 3 m/S 760 mmHg 94%
18:00 +24°C° 0.3 mm 3 m/S 760 mmHg 97%
19:00 +24°C° 0.3 mm 2 m/S 760 mmHg 97%
20:00 +23°C° 0.3 mm 2 m/S 761 mmHg 97%
21:00 +23°C° 0.3 mm 2 m/S 761 mmHg 98%
22:00 +23°C° 0.2 mm 2 m/S 761 mmHg 98%
23:00 +21°C° 0.2 mm 2 m/S 761 mmHg 98%
Mehr zeigen

Wir brauchen deine Erlaubnis

Meteoprog und unser Service Anbieter werden persönliche Daten aufbewahren, so wie Cookies, Geräte Bezeichnung oder ähnliche Technologien von deinem Gerät und Prozess, so wie Persönliche Daten Inhalte und Werbungen, genauso wie social Media und den Verkehr zu analysieren.

  • Aufbewahrung und/oder Zugang zu deiner Geräte Informationen.

    Cookies, Geräte Bezeichnung oder andere Informationen, können aufbewahrt oder Zugang zu deinem Gerät erhalten, für den Grund, der oben angegeben wird.

  • Personalisierte Werbung und Inhalte, Messungen, Einblick in das Publikum und Produkt Entwicklung.

    Werbungen und Inhalte können personalisiert werden, basierend auf ein Profil. Mehr Daten können besser personalisierte Werbungen und Inhalte hinzufügen. Werbung und Inhalte können gezeigt und gemessen werden. Einblicke über das Publikum, welche die Werbung gesehen haben und den Inhalt, können abgeleitet werden. So wie Daten können genutzt werden, um es zu verbessern oder die Benutzer Erfahrung zu verbessern das System und die Software.

Wenn du “Ich stimme zu” klickst, erlaubst du uns, die Cookies zu benutzen die Geräte Bezeichnung, den Web oder ähnliche Technologien zu benutzen. Deine Settings, können in deinem Gerät bei deinem Browser geändert werden.

Für den bestimmten Zweck, berechtigten Interessen beruhen darauf, mehr als auf den Inhalt. Du kannst mehr darüber in unseren Privaten und Cookie Politik lesen.